Weather in Voitove

Ukraine / Kyiv Region     50°28′14″N   31°34′17″E
temp.,
°C
wind,
m/s
gust,
m/s
humid.,
%
clouds,
%
prec.,
mm/h
press.,
hPa
HPBL,
m
7 march, sun
sun723:00−7w33790 0.0 102523
02:00−7wsw45810 0.0 102476
05:00−6sw511860 0.0 1022260
08:00−4sw7158529 0.0 1019468
11:000wsw8157897 0.0 10161119
14:00+1wsw8158398 0.0 10131273
17:00+1wsw7148094 0.1 10121024
20:000w6158296 0.1 1011771
8 march, mon
mon823:00−1wsw6148548 0.0 1010514
02:00−1wsw6138873 0.0 1009709
05:00−1w5138994 0.1 1009647
08:00−2w499294 0.2 1010454
11:00−1wnw587871 0.0 10111130
14:000wnw477548 0.0 10111217
17:00−2w377713 0.0 1011124
20:00−4wnw4118656 0.3 1013374
9 march, tue
tue923:00−6nw498633 0.0 1015201
02:00−7nw359017 0.0 101688
05:00−6nw499367 0.0 1018313
08:00−8nnw499153 0.0 1020357
11:00−6nnw47810 0.0 1021682
14:00−5nnw35790 0.0 1022767
17:00−7nne128417 0.0 102322
20:00−8ese118259 0.0 102521
10 march, wed
wed1023:00−9s128298 0.0 102621
02:00−10sse228476 0.0 102622
05:00−9sse338690 0.0 102546
08:00−8sse358595 0.0 1026128
11:00−5sse348292 0.0 1025273
14:00−3sse348290 0.0 1024381
17:00−5se348723 0.0 102457
20:00−8sse338012 0.0 102425
11 march, thu
thu1123:00−7sse237753 0.0 102524
02:00−8s227638 0.0 102521
05:00−9sse22771 0.0 102521
08:00−8sse238231 0.0 102652
11:00−4se238162 0.0 1026183
14:00−3se348231 0.0 1026270
17:00−5se34840 0.0 102663
20:00−8se45770 0.0 102771